CW9002 Weather Reports


time (UTC)temp
C
wind
direction
speed
KPH
gust
KPH
rain 1hr
cm
rain 24hr
cm
rain mn
cm
humidity
%
barometer
mb
20260509183706 12 227 3.2 12.9 0.00 0.84 0.84 86 1022.9
20260509183206 12 260 3.2 12.9 0.00 0.84 0.84 87 1022.8
20260509180206 12 280 1.6 8.0 0.00 0.84 0.84 88 1022.6
20260509173706 11 224 4.8 11.3 0.00 0.84 0.84 90 1022.5
20260509170705 10 209 3.2 11.3 0.03 0.84 0.84 90 1022.4
20260509170206 10 228 1.6 8.0 0.03 0.84 0.84 90 1022.3
20260509163705 10 144 3.2 14.5 0.05 0.84 0.84 91 1022.4
20260509163206 10 203 3.2 14.5 0.05 0.84 0.84 91 1022.5
20260509160705 10 241 4.8 19.3 0.08 0.81 0.81 92 1022.8
20260509160205 10 190 6.4 19.3 0.08 0.81 0.81 92 1022.8
20260509153705 10 191 8.0 22.5 0.10 0.79 0.79 93 1023.0
20260509153205 10 170 4.8 12.9 0.10 0.79 0.79 93 1023.0
20260509150206 10 208 3.2 12.9 0.10 0.74 0.74 94 1023.0
20260509143206 10 262 4.8 14.5 0.13 0.69 0.69 94 1023.2
20260509140705 9 216 6.4 16.1 0.15 0.64 0.64 93 1023.2
20260509140206 9 231 8.0 12.9 0.18 0.64 0.64 93 1023.2
20260509133206 9 175 8.0 19.3 0.15 0.56 0.56 93 1023.5
20260509130706 9 195 4.8 12.9 0.18 0.48 0.48 93 1023.4
20260509130205 9 218 3.2 12.9 0.15 0.46 0.46 93 1023.4
20260509123705 9 227 4.8 16.1 0.13 0.41 0.41 93 1023.5
20260509123207 9 225 6.4 16.1 0.15 0.41 0.41 92 1023.5
20260509120705 9 215 3.2 16.1 0.08 0.30 0.30 92 1023.6
20260509113706 8 227 9.7 19.3 0.15 0.28 0.28 92 1023.5
20260509113205 8 219 4.8 19.3 0.13 0.25 0.25 92 1023.5
20260509110706 8 196 3.2 12.9 0.13 0.23 0.23 92 1023.4
20260509110205 8 204 4.8 12.9 0.10 0.20 0.20 92 1023.4
20260509103705 8 214 3.2 16.1 0.05 0.13 0.13 92 1023.5
20260509103205 8 215 4.8 16.1 0.05 0.13 0.13 92 1023.5
20260509100705 8 133 3.2 12.9 0.08 0.10 0.10 91 1023.8
20260509100206 8 169 4.8 12.9 0.10 0.10 0.10 91 1023.7
20260509093705 8 220 3.2 14.5 0.08 0.08 0.08 89 1024.1
20260509093206 8 197 3.2 11.3 0.08 0.08 0.08 89 1024.2
20260509090705 10 250 8.0 19.3 0.03 0.03 0.03 83 1024.3
20260509090205 10 247 9.7 19.3 0.00 0.00 0.00 81 1024.2
20260509083206 10 234 3.2 11.3 0.00 0.00 0.00 78 1023.6
20260509080705 12 276 4.8 19.3 0.00 0.00 0.00 71 1022.8
20260509080205 12 240 8.0 19.3 0.00 0.00 0.00 63 1022.8
20260509073706 12 143 3.2 12.9 0.00 0.00 0.00 67 1022.6
20260509073205 12 200 4.8 12.9 0.00 0.00 0.00 68 1022.6
20260509070706 11 169 3.2 8.0 0.00 0.00 0.00 76 1022.6
20260509070205 11 194 1.6 4.8 0.00 0.00 0.00 77 1022.7
20260509063205 11 125 0.0 3.2 0.00 0.00 0.00 78 1022.9
20260509060705 11 126 0.0 4.8 0.00 0.00 0.00 76 1023.6
20260509060206 11 125 1.6 4.8 0.00 0.00 0.00 77 1023.7
20260509053705 10 105 1.6 4.8 0.00 0.00 0.00 79 1024.2
20260509053205 10 204 3.2 4.8 0.00 0.00 0.00 79 1024.4
20260509050706 10 246 1.6 3.2 0.00 0.00 0.00 77 1024.7
20260509043705 10 270 0.0 0.0 0.00 0.00 0.00 76 1024.9
20260509040705 10 270 0.0 0.0 0.00 0.00 0.00 75 1025.2
20260509033705 10 270 0.0 0.0 0.00 0.00 0.00 76 1025.5
20260509030706 10 270 0.0 0.0 0.00 0.00 0.00 77 1025.5
20260509023705 10 270 0.0 0.0 0.00 0.00 0.00 78 1025.6
20260509023206 10 270 0.0 0.0 0.00 0.00 0.00 79 1025.5
20260509020706 11 270 0.0 0.0 0.00 0.00 0.00 78 1025.3
20260509020206 11 270 0.0 0.0 0.00 0.00 0.00 77 1025.2
20260509013706 11 270 0.0 1.6 0.00 0.00 0.00 74 1024.9
20260509013207 11 270 0.0 4.8 0.00 0.00 0.00 72 1024.9
20260509010706 11 263 0.0 0.0 0.00 0.00 0.00 74 1024.8
20260509003706 11 263 0.0 0.0 0.00 0.00 0.00 74 1024.9
20260509003209 11 263 0.0 0.0 0.00 0.00 0.00 74 1024.9
20260509000706 11 263 0.0 0.0 0.00 0.00 0.00 72 1024.6
20260509000206 11 263 0.0 0.0 0.00 0.00 0.00 73 1024.5
20260508233706 11 263 0.0 1.6 0.00 0.00 0.00 73 1024.8
20260508233206 11 263 1.6 1.6 0.00 0.00 0.00 74 1024.7
20260508230706 12 263 0.0 1.6 0.00 0.00 0.00 69 1024.7
20260508230206 12 263 1.6 1.6 0.00 0.00 0.00 69 1024.7
20260508223207 12 263 1.6 3.2 0.00 0.00 0.00 64 1024.7
20260508220706 13 319 3.2 4.8 0.00 0.00 0.00 62 1024.8
20260508220206 13 220 3.2 4.8 0.00 0.00 0.00 64 1024.8
20260508213706 11 210 1.6 4.8 0.00 0.00 0.00 73 1025.2
20260508213206 11 207 1.6 3.2 0.00 0.00 0.00 74 1025.3
20260508210705 11 207 1.6 3.2 0.00 0.00 0.00 77 1025.4
20260508210206 11 207 0.0 3.2 0.00 0.00 0.00 78 1025.4
20260508203705 11 207 1.6 4.8 0.00 0.00 0.00 75 1025.8
20260508203205 11 207 1.6 12.9 0.00 0.00 0.00 74 1026.0
20260508200706 11 258 3.2 12.9 0.00 0.00 0.00 70 1026.1
20260508200205 11 281 3.2 12.9 0.00 0.00 0.00 72 1026.1
20260508193706 12 240 4.8 19.3 0.00 0.00 0.00 67 1026.4
20260508193207 12 241 9.7 19.3 0.00 0.00 0.00 68 1026.6
20260508190706 12 233 6.4 22.5 0.00 0.00 0.00 62 1026.6
20260508190207 12 261 9.7 22.5 0.00 0.00 0.00 61 1026.6